When you browse on this site, cookies collect data to enhance your experience and personalize the content and advertising you see.
Visit our Privacy Policy to learn more. By continuing to use the site, you agree to this use of cookies and data.
  • In Hungary
  • List of Countries
  • For 7 days
  • Water Temperature
  • Satellite Maps
  • Weather Map
  • News
  • Weather Widgets
  • user-avatar
    Login

    Hourly Weather Djankapur

    Today, 16 February, Saturday

    Time Temperature Precipitation Wind Pressure Humidity
    00:00 +20°C° 0 mm 1 mps 757 mmHg 77%
    01:00 +20°C° 0.1 mm 1 mps 757 mmHg 78%
    02:00 +20°C° 0.1 mm 1 mps 757 mmHg 80%
    03:00 +17°C° 0.1 mm 0 mps 756 mmHg 81%
    04:00 +19°C° 0.3 mm 1 mps 756 mmHg 83%
    05:00 +19°C° 0.3 mm 1 mps 756 mmHg 86%
    06:00 +18°C° 0.3 mm 1 mps 756 mmHg 88%
    07:00 +19°C° 0.2 mm 1 mps 757 mmHg 83%
    08:00 +21°C° 0.2 mm 1 mps 757 mmHg 78%
    09:00 +22°C° 0.2 mm 1 mps 757 mmHg 72%
    10:00 +23°C° 0 mm 1 mps 757 mmHg 65%
    11:00 +25°C° 0 mm 1 mps 757 mmHg 59%
    12:00 +27°C° 0 mm 2 mps 757 mmHg 52%
    13:00 +27°C° 0 mm 2 mps 756 mmHg 49%
    14:00 +28°C° 0 mm 2 mps 755 mmHg 47%
    15:00 +29°C° 0 mm 2 mps 755 mmHg 45%
    16:00 +27°C° 0 mm 2 mps 754 mmHg 50%
    17:00 +26°C° 0 mm 3 mps 754 mmHg 55%
    18:00 +25°C° 0 mm 3 mps 754 mmHg 60%
    19:00 +24°C° 0.1 mm 3 mps 754 mmHg 64%
    20:00 +21°C° 0.1 mm 3 mps 754 mmHg 68%
    21:00 +20°C° 0.1 mm 3 mps 754 mmHg 72%
    22:00 +20°C° 0.2 mm 3 mps 754 mmHg 75%
    23:00 +19°C° 0.2 mm 3 mps 754 mmHg 79%

    Tomorrow, 17 February, Sunday

    Time Temperature Precipitation Wind Pressure Humidity
    00:00 +18°C° 0.2 mm 3 mps 754 mmHg 83%
    01:00 +18°C° 0 mm 3 mps 754 mmHg 83%
    02:00 +17°C° 0 mm 3 mps 753 mmHg 83%
    03:00 +17°C° 0 mm 3 mps 753 mmHg 84%
    04:00 +16°C° 0 mm 3 mps 753 mmHg 85%
    05:00 +16°C° 0 mm 3 mps 753 mmHg 85%
    06:00 +14°C° 0 mm 3 mps 752 mmHg 86%
    07:00 +17°C° 0 mm 3 mps 753 mmHg 81%
    08:00 +18°C° 0 mm 3 mps 754 mmHg 76%
    09:00 +19°C° 0 mm 3 mps 754 mmHg 71%
    10:00 +21°C° 0 mm 3 mps 754 mmHg 64%
    11:00 +23°C° 0 mm 4 mps 754 mmHg 57%
    12:00 +26°C° 0 mm 4 mps 754 mmHg 50%
    13:00 +26°C° 0 mm 4 mps 753 mmHg 48%
    14:00 +27°C° 0 mm 4 mps 752 mmHg 47%
    15:00 +27°C° 0 mm 5 mps 752 mmHg 45%
    16:00 +26°C° 0 mm 4 mps 751 mmHg 50%
    17:00 +25°C° 0 mm 4 mps 751 mmHg 54%
    18:00 +22°C° 0 mm 3 mps 751 mmHg 59%
    19:00 +21°C° 0 mm 3 mps 752 mmHg 61%
    20:00 +20°C° 0 mm 3 mps 752 mmHg 64%
    21:00 +19°C° 0 mm 3 mps 752 mmHg 66%
    22:00 +18°C° 0 mm 3 mps 752 mmHg 69%
    23:00 +18°C° 0 mm 3 mps 752 mmHg 72%

    Day after tomorrow, 18 February, Monday

    Time Temperature Precipitation Wind Pressure Humidity
    00:00 +17°C° 0 mm 3 mps 752 mmHg 75%
    01:00 +17°C° 0 mm 3 mps 752 mmHg 78%
    02:00 +16°C° 0 mm 3 mps 751 mmHg 80%
    03:00 +16°C° 0 mm 3 mps 751 mmHg 83%
    04:00 +15°C° 0 mm 2 mps 751 mmHg 85%
    05:00 +15°C° 0 mm 2 mps 751 mmHg 87%
    06:00 +14°C° 0 mm 2 mps 751 mmHg 89%
    07:00 +16°C° 0 mm 2 mps 752 mmHg 84%
    08:00 +17°C° 0 mm 2 mps 753 mmHg 78%
    09:00 +18°C° 0 mm 2 mps 754 mmHg 72%
    10:00 +20°C° 0 mm 2 mps 754 mmHg 65%
    11:00 +22°C° 0 mm 3 mps 754 mmHg 57%
    12:00 +25°C° 0 mm 3 mps 754 mmHg 50%
    13:00 +25°C° 0 mm 3 mps 753 mmHg 46%
    14:00 +26°C° 0 mm 3 mps 753 mmHg 42%
    15:00 +27°C° 0 mm 3 mps 752 mmHg 38%
    16:00 +25°C° 0 mm 3 mps 752 mmHg 41%
    17:00 +24°C° 0 mm 3 mps 752 mmHg 45%
    18:00 +23°C° 0 mm 2 mps 752 mmHg 49%
    19:00 +21°C° 0 mm 2 mps 752 mmHg 50%
    20:00 +20°C° 0 mm 2 mps 753 mmHg 52%
    21:00 +19°C° 0 mm 2 mps 753 mmHg 53%
    22:00 +18°C° 0 mm 2 mps 754 mmHg 56%
    23:00 +19°C° 0 mm 1 mps 754 mmHg 58%

    19 February, Tuesday

    Time Temperature Precipitation Wind Pressure Humidity
    00:00 +18°C° 0 mm 1 mps 754 mmHg 61%
    01:00 +18°C° 0 mm 1 mps 754 mmHg 64%
    02:00 +16°C° 0 mm 1 mps 753 mmHg 67%
    03:00 +15°C° 0 mm 0 mps 753 mmHg 70%
    04:00 +16°C° 0 mm 1 mps 753 mmHg 71%
    05:00 +16°C° 0 mm 1 mps 753 mmHg 72%
    06:00 +15°C° 0 mm 1 mps 753 mmHg 73%
    07:00 +18°C° 0 mm 1 mps 754 mmHg 69%
    08:00 +18°C° 0 mm 2 mps 755 mmHg 64%
    09:00 +20°C° 0 mm 2 mps 756 mmHg 60%
    10:00 +21°C° 0 mm 2 mps 756 mmHg 55%
    11:00 +24°C° 0 mm 1 mps 757 mmHg 50%
    12:00 +25°C° 0 mm 1 mps 757 mmHg 46%
    13:00 +26°C° 0 mm 1 mps 756 mmHg 43%
    14:00 +27°C° 0 mm 1 mps 755 mmHg 40%
    15:00 +28°C° 0 mm 1 mps 755 mmHg 37%
    16:00 +27°C° 0 mm 1 mps 755 mmHg 41%
    17:00 +25°C° 0 mm 1 mps 755 mmHg 45%
    18:00 +24°C° 0 mm 1 mps 755 mmHg 49%
    19:00 +23°C° 0 mm 1 mps 755 mmHg 51%
    20:00 +22°C° 0 mm 1 mps 756 mmHg 53%
    21:00 +20°C° 0 mm 2 mps 756 mmHg 55%
    22:00 +20°C° 0 mm 2 mps 756 mmHg 57%
    23:00 +19°C° 0 mm 2 mps 756 mmHg 59%

    20 February, Wednesday

    Time Temperature Precipitation Wind Pressure Humidity
    00:00 +19°C° 0 mm 2 mps 756 mmHg 61%
    01:00 +18°C° 0 mm 2 mps 756 mmHg 63%
    02:00 +18°C° 0 mm 2 mps 756 mmHg 66%
    03:00 +17°C° 0 mm 2 mps 755 mmHg 69%
    04:00 +17°C° 0 mm 2 mps 755 mmHg 70%
    05:00 +16°C° 0 mm 1 mps 755 mmHg 72%
    06:00 +16°C° 0 mm 1 mps 755 mmHg 74%
    07:00 +19°C° 0 mm 1 mps 756 mmHg 69%
    08:00 +20°C° 0 mm 1 mps 757 mmHg 64%
    09:00 +22°C° 0 mm 1 mps 758 mmHg 59%
    10:00 +24°C° 0 mm 1 mps 758 mmHg 54%
    11:00 +25°C° 0 mm 1 mps 758 mmHg 48%
    12:00 +27°C° 0 mm 1 mps 757 mmHg 42%
    13:00 +28°C° 0 mm 2 mps 757 mmHg 38%
    14:00 +29°C° 0 mm 3 mps 756 mmHg 35%
    15:00 +30°C° 0 mm 4 mps 755 mmHg 31%
    16:00 +28°C° 0 mm 3 mps 755 mmHg 36%
    17:00 +27°C° 0 mm 3 mps 755 mmHg 41%
    18:00 +25°C° 0 mm 3 mps 755 mmHg 47%
    19:00 +24°C° 0 mm 3 mps 756 mmHg 49%
    20:00 +23°C° 0 mm 2 mps 756 mmHg 52%
    21:00 +21°C° 0 mm 2 mps 757 mmHg 55%
    22:00 +20°C° 0 mm 2 mps 757 mmHg 58%
    23:00 +19°C° 0 mm 2 mps 757 mmHg 62%

    21 February, Thursday

    Time Temperature Precipitation Wind Pressure Humidity
    00:00 +20°C° 0 mm 1 mps 757 mmHg 65%
    01:00 +19°C° 0 mm 1 mps 757 mmHg 68%
    02:00 +19°C° 0 mm 1 mps 757 mmHg 70%
    03:00 +19°C° 0 mm 1 mps 756 mmHg 72%
    04:00 +18°C° 0 mm 1 mps 756 mmHg 73%
    05:00 +18°C° 0 mm 1 mps 756 mmHg 73%
    06:00 +17°C° 0 mm 2 mps 756 mmHg 73%
    07:00 +18°C° 0 mm 2 mps 757 mmHg 68%
    08:00 +20°C° 0 mm 3 mps 758 mmHg 63%
    09:00 +21°C° 0 mm 4 mps 759 mmHg 57%
    10:00 +23°C° 0 mm 4 mps 758 mmHg 53%
    11:00 +26°C° 0 mm 3 mps 758 mmHg 48%
    12:00 +27°C° 0 mm 3 mps 758 mmHg 44%
    13:00 +28°C° 0 mm 2 mps 757 mmHg 41%
    14:00 +29°C° 0 mm 1 mps 756 mmHg 38%
    15:00 +30°C° 0 mm 1 mps 756 mmHg 35%
    16:00 +29°C° 0 mm 1 mps 756 mmHg 39%
    17:00 +28°C° 0 mm 1 mps 756 mmHg 42%
    18:00 +26°C° 0 mm 1 mps 756 mmHg 45%
    19:00 +25°C° 0 mm 1 mps 756 mmHg 47%
    20:00 +24°C° 0 mm 1 mps 756 mmHg 49%
    21:00 +23°C° 0 mm 1 mps 757 mmHg 51%
    22:00 +22°C° 0 mm 1 mps 756 mmHg 53%
    23:00 +22°C° 0 mm 1 mps 756 mmHg 56%
    Show more